Home > Time Zones > World Clock > Weather > Iran > Tehran > Past weeks

Flag for Iran Weather past 2 weeks in Tehran, Iran

Now
81 °F

Clear.


Feels Like: 79 °F
Forecast: 66 / 94 °F
Wind: 7 mph from North

Location: Tehran-Mehrabad

Current Time: Aug 30, 2014 at 3:48:54 AM

Latest Report: Aug 30, 2014 at 3:00 AM


Visibility: 10 mi

Pressure: 29.95 "Hg

Humidity: 18%

Dew point: 34 °F

Location of TehranLocation

Historic Weather in Tehran — Graph

°F

Tehran temperature yesterday

Maximum temperature yesterday: 97 °F (at 6:30 PM)
Minimum temperature yesterday: 77 °F (at 6:00 AM)
Average temperature yesterday: 87 °F

Past Weeks' High & Low Weather Summary

 TemperatureHumidityPressure
High100 °F (Aug 20, 4:00 PM)41% (Aug 15, 4:00 AM)30.09 "Hg (Aug 15, 4:00 AM)
Low72 °F (Aug 15, 6:00 AM)7% (Aug 18, 5:30 PM)29.86 "Hg (Aug 16, 5:00 PM)
Average87 °F18%29.99 "Hg
* Reported Aug 15 2:30 AM — Aug 30 2:30 AM, Tehran, Weather by CustomWeather, © 2014

Note: Actual official high and low records may vary slightly from our data, if they occured in-between our weather recording intervals... More about our weather records

Advertising

Tehran weather history for previous 24 hours

 ConditionsComfort  
Time TempWeatherWind HumidityBarometerVisibility
2:30 AM
Aug 30
81 °FClear.7 mph20%29.95 "Hg10 mi
2:00 AM81 °FClear.7 mph21%29.95 "Hg10 mi
1:30 AM81 °FClear.7 mph21%29.95 "Hg10 mi
11:30 PM
Aug 29
82 °FClear.5 mph21%29.95 "Hg10 mi
11:00 PM84 °FClear.7 mph20%29.95 "Hg10 mi
10:30 PM84 °FClear.5 mph19%29.95 "Hg10 mi
10:00 PM86 °FPassing clouds.5 mph17%29.95 "HgN/A
9:30 PM90 °FPassing clouds.No wind12%29.95 "HgN/A
9:00 PM90 °FPassing clouds.7 mph13%29.92 "HgN/A
8:30 PM91 °FPassing clouds.7 mph11%29.92 "HgN/A
8:00 PM91 °FPassing clouds.7 mph11%29.92 "HgN/A
7:30 PM93 °FPassing clouds.9 mph9%29.89 "HgN/A
7:00 PM97 °FPassing clouds.14 mph7%29.89 "HgN/A
6:30 PM97 °FPassing clouds.14 mph7%29.89 "HgN/A
5:50 PM95 °FPassing clouds.7 mph9%29.89 "HgN/A
5:30 PM95 °FPassing clouds.7 mph9%29.89 "HgN/A
5:00 PM95 °FPassing clouds.5 mph9%29.92 "HgN/A
4:30 PM95 °FPassing clouds.5 mph9%29.92 "HgN/A
4:00 PM95 °FPassing clouds.9 mph8%29.92 "HgN/A
3:30 PM95 °FPassing clouds.9 mph8%29.92 "HgN/A
3:00 PM95 °FPassing clouds.12 mph8%29.95 "HgN/A
2:30 PM95 °FPassing clouds.12 mph8%29.95 "HgN/A
1:50 PM93 °FSunny.9 mph9%29.98 "Hg10 mi
1:30 PM93 °FSunny.9 mph9%29.98 "Hg10 mi
12:50 PM91 °FSunny.9 mph8%29.98 "Hg10 mi
12:30 PM91 °FSunny.9 mph8%29.98 "Hg10 mi
12:00 PM91 °FSunny.7 mph9%30.01 "Hg10 mi
11:30 AM91 °FSunny.7 mph9%30.01 "Hg10 mi
11:00 AM90 °FSunny.5 mph12%30.01 "Hg10 mi
10:30 AM90 °FSunny.5 mph12%30.01 "Hg10 mi
9:50 AM88 °FSunny.7 mph13%30.01 "Hg10 mi
9:30 AM88 °FSunny.7 mph13%30.01 "Hg10 mi
9:00 AM84 °FSunny.No wind19%29.98 "Hg10 mi
8:30 AM84 °FSunny.No wind19%29.98 "Hg10 mi
8:00 AM79 °FClear.No wind23%29.98 "Hg10 mi
7:30 AM79 °FClear.No wind23%29.98 "Hg10 mi
7:00 AM77 °FClear.No wind24%29.98 "Hg10 mi
6:30 AM77 °FClear.No wind24%29.98 "Hg10 mi
6:00 AM77 °FClear.7 mph21%29.98 "Hg10 mi
5:30 AM79 °FClear.7 mph21%29.95 "Hg10 mi
5:00 AM79 °FClear.7 mph21%29.95 "Hg10 mi
4:25 AM79 °FClear.7 mph21%29.95 "Hg10 mi
4:00 AM79 °FClear.5 mph23%29.95 "Hg10 mi
3:30 AM79 °FClear.5 mph23%29.95 "Hg10 mi
3:00 AM81 °FClear.5 mph21%29.95 "Hg10 mi
Weather by CustomWeather, © 2014

See weather overviewHow to use our weather pages